NOAA 16 DEB, 41283

Orbit data source: Space-Track

NOAA 16 DEB, 41283 is space debris in SSO originally from a launch on Thu, 21 Sep 2000 UTC launched from the Air Force Western Test Range (AFWTR). Debris objects in space refer to the collection of defunct objects orbiting the Earth. Examples of debris include non-operational satellites, rocket bodies, and fragments generated from explosions, collisions, or faulty payload assembly.

Loading next visibility...
NOAA 16 DEB details
Identifier
41283, 2000-055GK
Orbit
SSO
Last TLE update1 day ago
Origin
Flag of USNOAA (US)
ManufacturerUnknown
MissionSpacecraft
Bus & MotorUnknown
MassUnknown
Launch date (UTC)
2000-09-21 (24 years ago)
Launch vehicleUnknown
Launch site
Air Force Western Test Range (AFWTR)
Object type
Payload
Rocket body
Debris
Shape & HBRUnknown
Radar Cross SectionSmall (<0.1 m²)

Expand to show TLE details & history

TLE from 1 day ago
0 NOAA 16 DEB
1 41283U 00055GK  24360.19993381  .00005994  00000-0  36309-2 0  9996
2 41283  98.8027 340.2161 0063592  74.6450 286.1734 14.05735406460806
Epoch: 2024-12-25T04:47Z
Definitive object data (Epoch: 2024-12-25T04:47:54.281Z)
Latitude0.00003°
Longitude174.04282°
Altitude864.317 km
Speed7.427 km/s
True Right ascension22h 40m 51s
True Declination0° 00' 00"
Sunlit
Object was in daylight at TLE epoch
Visualization TLE readout
Latitude-44.12033°
Longitude-175.99152°
Altitude910.292 km
Speed7.386 km/s
Apparent Right ascension00h 40m 54s
Apparent Declination-43° 53' 57"
Sunlit
Object is in daylight
Visualization observer readout
Local Sidereal Time14:06:57
Azimuth111.046° ESE
Elevation-73.556°
Doppler factor1
Orbital elements
Apogee altitude917.284 km
Perigee altitude825.084 km
Semi-major axis7,249.321 km
Eccentricity0.0063592
Inclination98.8027°
RAAN340.2161°
Arg. of periapsis74.645°
True anomaly285.47199°
Mean anomaly286.1734°
Eccentric anomaly285.82285°
Mean motion3.51639 °/min
BSTAR0.0036309
Orbital period102.38 mins
Loading maneuver chart data...
Loading historical data...
Loading historical data...
Loading historical data...
Loading historical data...
Loading historical data...
Loading historical data...
Loading historical data...

NOAA 16 DEB Visibility forecast

Observer location: undefined°, undefined

Span
Click to sort rows by Start time (UTC) header in descending order
Start Az.
Max El. time (UTC)
Max El. Az.
Max El.
End time (UTC)
End Az.
8 mins2024-12-26 21:56:03.409Z122.148° SE2024-12-26 22:00:03.409Z67.517° E26.412°2024-12-26 22:04:03.409Z11.676° NNE
7 mins2024-12-26 23:38:03.409Z210.359° SW2024-12-26 23:41:03.409Z260.289° W29.267°2024-12-26 23:45:03.409Z321.64° NNW
4 mins2024-12-27 10:24:03.409Z77.637° E2024-12-27 10:25:03.409Z89.656° E13.994°2024-12-27 10:28:03.409Z122.89° SE
9 mins2024-12-27 12:03:03.409Z5.999° NNE2024-12-27 12:07:03.409Z265.121° W43.088°2024-12-27 12:12:03.409Z204.234° SW
|